Change the Weather History Date:

Tuesday, April 29, 2014

  Actual Average (KAQP) Record (KAQP)
Temperature  
Mean Temperature 45 °F -  
Max Temperature 51 °F 62 °F 84 °F (2001)
Min Temperature 39 °F 37 °F 5 °F (1998)
Degree Days  
Heating Degree Days 20    
Moisture  
Dew Point 38 °F    
Average Humidity 78    
Maximum Humidity 100    
Minimum Humidity 54    
Precipitation  
Precipitation 0.03 in - - ()
Sea Level Pressure  
Sea Level Pressure 29.79 in    
Wind  
Wind Speed 17 mph (NNE)    
Max Wind Speed 26 mph    
Max Gust Speed 34 mph    
Visibility 9 miles    
Events Rain    
Averages and records for this station are not official NWS values.
T = Trace of Precipitation, MM = Missing Value Source: NWS Daily Summary

Daily Weather History Graph

Daily Weather History Graph

Search for Another Location

Airport or City:

Trip Planner

Search our weather history database for the weather conditions in past years. The results will help you decide how hot, cold, wet, or windy it might be!

Date:

Astronomy

Apr. 29, 2014 Rise Set
Actual Time 6:17 AM CDT 8:27 PM CDT
Civil Twilight 5:44 AM CDT 9:00 PM CDT
Nautical Twilight 5:05 AM CDT 9:39 PM CDT
Astronomical Twilight 4:21 AM CDT 10:24 PM CDT
Moon 6:36 AM CDT (4/29) 9:09 PM CDT (4/29)
Length of Visible Light 15h 15m
Length of Day
14h 10m
New Moon, 0% of the Moon is Illuminated
Apr 29
New Moon
May 6
First Quarter
May 14
Full
May 21
Last Quarter
May 28
New

Hourly Weather History & Observations

Time (CDT) Temp. Windchill Dew Point Humidity Pressure Visibility Wind Dir Wind Speed Gust Speed Precip Events Conditions
12:13 AM 44.6 °F 37.8 °F 41.0 °F 87% 29.70 in 10.0 mi NE 15.0 mph 21.9 mph N/A   Overcast
12:34 AM 44.6 °F 36.9 °F 41.0 °F 87% 29.70 in 10.0 mi NE 18.4 mph 24.2 mph N/A   Overcast
12:54 AM 42.8 °F 34.5 °F 39.2 °F 87% 29.70 in 10.0 mi NE 18.4 mph 25.3 mph N/A   Overcast
1:13 AM 42.8 °F 34.8 °F 39.2 °F 87% 29.71 in 10.0 mi NE 17.3 mph 24.2 mph N/A   Overcast
1:34 AM 42.8 °F 34.8 °F 39.2 °F 87% 29.71 in 10.0 mi NE 17.3 mph 24.2 mph N/A   Overcast
1:54 AM 42.8 °F 35.1 °F 37.4 °F 81% 29.71 in 10.0 mi NE 16.1 mph 23.0 mph N/A   Light Drizzle
2:13 AM 42.8 °F 34.8 °F 37.4 °F 81% 29.71 in 10.0 mi NE 17.3 mph 23.0 mph N/A   Overcast
2:34 AM 42.8 °F 34.8 °F 37.4 °F 81% 29.71 in 10.0 mi NE 17.3 mph - N/A   Overcast
2:54 AM 42.8 °F 35.1 °F 37.4 °F 81% 29.71 in 10.0 mi NE 16.1 mph 20.7 mph N/A   Overcast
3:13 AM 42.8 °F 35.1 °F 37.4 °F 81% 29.71 in 10.0 mi NE 16.1 mph 20.7 mph N/A   Light Drizzle
3:34 AM 42.8 °F 35.4 °F 37.4 °F 81% 29.71 in 10.0 mi NE 15.0 mph - N/A   Light Drizzle
3:54 AM 41.0 °F 33.1 °F 39.2 °F 93% 29.72 in 5.0 mi NE 15.0 mph 21.9 mph N/A   Mostly Cloudy
4:13 AM 41.0 °F 32.8 °F 39.2 °F 93% 29.72 in 5.0 mi NNE 16.1 mph - N/A   Scattered Clouds
4:34 AM 39.2 °F 30.2 °F 39.2 °F 100% 29.72 in 4.0 mi NNE 17.3 mph - N/A   Mostly Cloudy
4:54 AM 39.2 °F 30.5 °F 39.2 °F 100% 29.72 in 3.0 mi NNE 16.1 mph - N/A   Mostly Cloudy
5:13 AM 39.2 °F 30.8 °F 37.4 °F 93% 29.73 in 4.0 mi NNE 15.0 mph - N/A   Scattered Clouds
5:34 AM 39.2 °F 30.5 °F 39.2 °F 100% 29.73 in 5.0 mi NNE 16.1 mph 20.7 mph N/A   Mostly Cloudy
5:54 AM 39.2 °F 30.5 °F 39.2 °F 100% 29.74 in 2.5 mi NNE 16.1 mph - N/A   Scattered Clouds
6:13 AM 39.2 °F 31.2 °F 39.2 °F 100% 29.74 in 3.0 mi NNE 13.8 mph - N/A   Scattered Clouds
6:34 AM 39.2 °F 30.8 °F 39.2 °F 100% 29.75 in 4.0 mi North 15.0 mph - N/A   Scattered Clouds
6:54 AM 39.2 °F 29.8 °F 37.4 °F 93% 29.75 in 7.0 mi NNE 18.4 mph 21.9 mph N/A Rain Light Rain
7:13 AM 39.2 °F 30.8 °F 37.4 °F 93% 29.75 in 10.0 mi NNE 15.0 mph - 0.01 in Rain Light Rain
7:34 AM 39.2 °F 30.2 °F 37.4 °F 93% 29.76 in 4.0 mi North 17.3 mph 24.2 mph 0.01 in Rain Light Rain
7:53 AM 39.2 °F 29.8 °F 37.4 °F 93% 29.76 in 7.0 mi NNE 18.4 mph 24.2 mph 0.02 in Rain Rain
8:14 AM 39.2 °F 30.8 °F 37.4 °F 93% 29.76 in 4.0 mi NNE 15.0 mph 23.0 mph N/A Rain Light Rain
8:33 AM 41.0 °F 32.5 °F 39.2 °F 93% 29.76 in 10.0 mi NE 17.3 mph 23.0 mph N/A   Scattered Clouds
8:53 AM 41.0 °F 33.1 °F 37.4 °F 87% 29.77 in 10.0 mi NNE 15.0 mph - N/A   Clear
9:14 AM 42.8 °F 36.2 °F 37.4 °F 81% 29.77 in 10.0 mi North 12.7 mph 18.4 mph N/A   Scattered Clouds
9:33 AM 42.8 °F 34.5 °F 37.4 °F 81% 29.76 in 10.0 mi North 18.4 mph 24.2 mph N/A   Mostly Cloudy
9:53 AM 42.8 °F 34.5 °F 37.4 °F 81% 29.76 in 10.0 mi North 18.4 mph 24.2 mph N/A   Mostly Cloudy
10:14 AM 42.8 °F 34.5 °F 37.4 °F 81% 29.76 in 10.0 mi North 18.4 mph 24.2 mph N/A   Mostly Cloudy
10:33 AM 42.8 °F 34.5 °F 37.4 °F 81% 29.76 in 10.0 mi North 18.4 mph 23.0 mph N/A   Overcast
10:53 AM 42.8 °F 34.5 °F 35.6 °F 76% 29.77 in 10.0 mi NNE 18.4 mph 25.3 mph N/A   Overcast
11:14 AM 44.6 °F 35.9 °F 35.6 °F 71% 29.77 in 10.0 mi NNE 23.0 mph 28.8 mph N/A   Mostly Cloudy
11:34 AM 44.6 °F 36.4 °F 35.6 °F 71% 29.78 in 10.0 mi NNE 20.7 mph 28.8 mph N/A   Scattered Clouds
11:53 AM 46.4 °F 38.3 °F 33.8 °F 62% 29.78 in 10.0 mi NNE 23.0 mph 26.5 mph N/A   Clear
12:14 PM 46.4 °F 38.5 °F 33.8 °F 62% 29.78 in 10.0 mi NNE 21.9 mph 29.9 mph N/A   Scattered Clouds
12:33 PM 48.2 °F - 35.6 °F 62% 29.78 in 10.0 mi NNE 26.5 mph 32.2 mph N/A   Scattered Clouds
12:54 PM 48.2 °F - 35.6 °F 62% 29.77 in 10.0 mi NNE 19.6 mph 26.5 mph N/A   Scattered Clouds
1:14 PM 48.2 °F - 35.6 °F 62% 29.77 in 10.0 mi NNE 24.2 mph 29.9 mph N/A   Scattered Clouds
1:33 PM 48.2 °F - 35.6 °F 62% 29.77 in 10.0 mi North 24.2 mph 29.9 mph N/A   Scattered Clouds
1:54 PM 48.2 °F - 33.8 °F 58% 29.77 in 10.0 mi NNE 26.5 mph 33.4 mph N/A   Clear
2:14 PM 48.2 °F - 35.6 °F 62% 29.77 in 10.0 mi NNE 19.6 mph 34.5 mph N/A   Clear
2:33 PM 48.2 °F - 33.8 °F 58% 29.78 in 10.0 mi NNE 24.2 mph 32.2 mph N/A   Clear
2:54 PM 48.2 °F - 35.6 °F 62% 29.79 in 10.0 mi NNE 20.7 mph 27.6 mph N/A   Clear
3:14 PM 50.0 °F - 37.4 °F 62% 29.79 in 10.0 mi NNE 25.3 mph 29.9 mph N/A   Clear
3:33 PM 51.8 °F - 35.6 °F 54% 29.79 in 10.0 mi NNE 24.2 mph 29.9 mph N/A Rain Light Rain
4:13 PM 50.0 °F - 37.4 °F 62% 29.80 in 10.0 mi NNE 19.6 mph 25.3 mph N/A   Light Drizzle
4:33 PM 50.0 °F - 37.4 °F 62% 29.81 in 10.0 mi NE 20.7 mph 27.6 mph N/A Rain Light Rain
4:54 PM 50.0 °F - 37.4 °F 62% 29.81 in 10.0 mi NNE 15.0 mph 21.9 mph N/A   Scattered Clouds
5:13 PM 50.0 °F - 37.4 °F 62% 29.82 in 10.0 mi NNE 16.1 mph 28.8 mph N/A   Light Drizzle
5:33 PM 48.2 °F - 37.4 °F 66% 29.83 in 10.0 mi North 19.6 mph - N/A   Light Drizzle
5:54 PM 48.2 °F - 37.4 °F 66% 29.85 in 10.0 mi NE 21.9 mph 31.1 mph N/A   Light Drizzle
6:13 PM 48.2 °F - 39.2 °F 71% 29.85 in 10.0 mi NNE 20.7 mph - N/A Rain Rain
6:33 PM 48.2 °F - 39.2 °F 71% 29.86 in 10.0 mi North 19.6 mph 25.3 mph N/A Rain Light Rain
6:54 PM 48.2 °F - 39.2 °F 71% 29.86 in 10.0 mi North 16.1 mph 26.5 mph N/A Rain Light Rain
7:13 PM 48.2 °F - 39.2 °F 71% 29.87 in 10.0 mi NNE 13.8 mph 20.7 mph N/A Rain Light Rain
7:34 PM 46.4 °F 39.0 °F 39.2 °F 76% 29.88 in 10.0 mi NNE 19.6 mph 25.3 mph N/A   Mostly Cloudy
7:53 PM 46.4 °F 40.4 °F 39.2 °F 76% 29.88 in 10.0 mi NNE 13.8 mph - N/A   Light Drizzle
8:14 PM 46.4 °F 42.4 °F 39.2 °F 76% 29.88 in 10.0 mi NNE 8.1 mph - N/A   Drizzle
8:34 PM 46.4 °F 43.5 °F 39.2 °F 76% 29.89 in 10.0 mi North 5.8 mph - 0.01 in Rain Rain
8:53 PM 46.4 °F 42.9 °F 39.2 °F 76% 29.88 in 10.0 mi North 6.9 mph - 0.01 in   Drizzle
9:14 PM 46.4 °F 43.5 °F 39.2 °F 76% 29.89 in 10.0 mi North 5.8 mph - N/A   Drizzle
9:34 PM 46.4 °F 43.5 °F 39.2 °F 76% 29.89 in 10.0 mi North 5.8 mph - N/A   Light Drizzle
9:53 PM 46.4 °F 41.9 °F 39.2 °F 76% 29.88 in 10.0 mi North 9.2 mph - N/A   Light Drizzle
10:14 PM 46.4 °F 42.9 °F 39.2 °F 76% 29.89 in 10.0 mi NNE 6.9 mph - N/A Rain Rain
10:34 PM 46.4 °F 41.9 °F 39.2 °F 76% 29.88 in 10.0 mi North 9.2 mph - N/A   Drizzle
10:53 PM 46.4 °F 41.9 °F 39.2 °F 76% 29.88 in 10.0 mi North 9.2 mph - N/A Rain Light Rain
11:14 PM 46.4 °F 41.9 °F 39.2 °F 76% 29.88 in 10.0 mi North 9.2 mph - N/A Rain Light Rain
11:34 PM 44.6 °F 39.7 °F 39.2 °F 81% 29.88 in 10.0 mi North 9.2 mph - N/A Rain Rain
11:53 PM 44.6 °F 38.4 °F 39.2 °F 81% 29.87 in 10.0 mi North 12.7 mph - N/A   Overcast